Location: Moulis
(42.9609°N, 1.0909°E)
Time: 17:03:45
(UTC+00:00)

ARIANE 5 R/B - Visible Passes

Search period start: 14 March 2026 00:00
Search period end: 24 March 2026 00:00
Orbit: 746 x 793 km, 98.8° (Epoch: 14 March)

Date Brightness Start Highest point End Pass type
(mag) Time Alt. Az. Time Alt. Az. Time Alt. Az.
14 Mar 6.1 05:22:51 10° ENE 05:25:02 13° E 05:27:13 10° ESE visible
15 Mar 5.8 19:22:35 10° WSW 19:24:33 12° W 19:26:30 10° WNW visible
16 Mar 4.9 18:44:23 10° SSW 18:48:33 27° W 18:52:45 10° NW visible
17 Mar 6.3 05:16:23 10° E 05:17:09 10° E 05:17:54 10° E visible
18 Mar 5.6 19:13:53 10° SW 19:16:38 15° W 19:19:25 10° WNW visible
19 Mar 4.6 18:36:17 10° SSW 18:40:42 32° W 18:45:09 10° NNW visible
21 Mar 5.4 19:05:26 10° SW 19:08:45 18° W 19:12:06 10° NW visible
